Location: Irma
(52.9170°N, 111.2330°W)
Time: 13:17:38
(UTC-07:00)

Amateur Radio Satellites - All Passes

Search period start: 04 March 2015 12:47
Search period end: 05 March 2015 12:47
Location: Irma, 52.9170°N, 111.2330°W

Satellite Date Start Highest point End Downlink Frequencies (MHz)
Time Altitude Azimuth
BEESAT 04 Mar 12:54:22 12:57:15 16° 86° (E) 13:00:19 436.000
HO-68 04 Mar 12:58:10 13:01:29 14° 328° (NNW) 13:04:34 435.675
50 SAT 04 Mar 13:08:54 13:10:54 13° 304° (WNW) 13:12:48 437.505
ITUPSAT 1 04 Mar 13:22:15 13:26:19 27° 92° (E) 13:30:26 437.325
AO-7 04 Mar 13:25:59 13:33:00 32° 46° (NE) 13:40:06 29.400- 29.500
CUBEBUG 1 04 Mar 13:29:50 13:33:08 20° 301° (WNW) 13:36:20 437.445
AISAT 04 Mar 13:34:33 13:36:07 12° 309° (NW) 13:37:32 437.250
HORYU 2 04 Mar 13:42:20 13:45:51 24° 60° (ENE) 13:49:28 437.375
Gurwin Techsat 1B 04 Mar 13:43:14 13:48:32 75° 72° (ENE) 13:53:53 435.225
VELOX 1 04 Mar 13:43:58 13:44:35 10° 311° (NW) 13:45:02 145.980
TISAT 1 04 Mar 13:50:25 13:54:21 37° 294° (WNW) 13:58:13 437.305
SPROUT 04 Mar 13:53:42 13:57:34 32° 295° (WNW) 14:01:23 437.525
Oscar 19 04 Mar 13:57:55 14:02:23 29° 267° (W) 14:06:50 437.125/150
ITAMSAT 1 04 Mar 13:59:30 14:04:43 67° 257° (WSW) 14:09:58 435.822/435.867
ESTCUBE 1 04 Mar 14:06:06 14:07:47 12° 309° (NW) 14:09:19 437.505/2401.250
KKS-1 04 Mar 14:10:34 14:13:29 17° 88° (E) 14:16:30 437.445
JAS-2 04 Mar 14:11:28 14:16:03 24° 51° (NE) 14:21:11 435.910
STARS 04 Mar 14:13:09 14:14:54 12° 85° (E) 14:16:50 437.465
ISS 04 Mar 14:14:07 14:16:54 27° 208° (SSW) 14:19:40 145.825
SWISSCUBE 04 Mar 14:22:43 14:27:35 89° 94° (E) 14:32:25 437.505
BEESAT 04 Mar 14:30:59 14:35:50 85° 289° (WNW) 14:40:38 436.000
ITUPSAT 1 04 Mar 14:59:48 15:04:31 51° 292° (WNW) 15:09:11 437.325
AO-7 04 Mar 15:16:40 15:25:04 89° 249° (WSW) 15:33:28 29.400- 29.500
HORYU 2 04 Mar 15:17:56 15:22:16 53° 259° (W) 15:26:39 437.375
YUBILEINY 04 Mar 15:22:39 15:30:25 39° 84° (E) 15:38:21 435.215
Gurwin Techsat 1B 04 Mar 15:25:07 15:29:09 21° 272° (W) 15:33:05 435.225
ITAMSAT 1 04 Mar 15:43:21 15:45:23 12° 279° (W) 15:47:08 435.822/435.867
KKS-1 04 Mar 15:46:14 15:50:41 71° 289° (WNW) 15:55:05 437.445
STARS 04 Mar 15:47:45 15:52:10 85° 105° (ESE) 15:56:34 437.465
JAS-2 04 Mar 15:54:37 16:00:22 87° 254° (WSW) 16:06:57 435.910
M-CUBED/EXP-1 PRIME 04 Mar 15:55:21 15:56:41 11° 92° (E) 15:58:15 437.505
AUBIESAT-1 04 Mar 15:56:09 15:56:47 10° 91° (E) 15:57:39 437.475
SWISSCUBE 04 Mar 16:01:36 16:04:53 18° 305° (NW) 16:08:03 437.505
O/OREOS (USA 219) 04 Mar 16:01:42 16:03:24 12° 26° (NNE) 16:05:11 437.305
Cubesat XI-IV 04 Mar 16:04:30 16:08:26 22° 54° (NE) 16:12:30 437.490
BEESAT 04 Mar 16:09:58 16:13:03 17° 306° (NW) 16:16:02 436.000
CUTE-I 04 Mar 16:12:33 16:16:42 24° 56° (NE) 16:20:59 437.470
ITUPSAT 1 04 Mar 16:39:57 16:41:27 11° 312° (NW) 16:42:47 437.325
BEESAT 3 04 Mar 17:04:52 17:08:29 30° 121° (ESE) 17:12:11 437.485
AO-7 04 Mar 17:12:21 17:19:07 26° 272° (W) 17:25:38 29.400- 29.500
MOZHAYETS 4 04 Mar 17:12:35 17:17:11 59° 101° (E) 17:21:47
YUBILEINY 04 Mar 17:18:12 17:26:54 64° 288° (WNW) 17:35:41 435.215
KKS-1 04 Mar 17:24:29 17:26:37 13° 307° (NW) 17:28:36 437.445
STARS 04 Mar 17:25:18 17:28:08 17° 304° (NW) 17:30:50 437.465
M-CUBED/EXP-1 PRIME 04 Mar 17:28:05 17:32:16 75° 110° (ESE) 17:36:48 437.505
AUBIESAT-1 04 Mar 17:28:11 17:32:22 69° 109° (ESE) 17:36:53 437.475
AIST 1 04 Mar 17:28:13 17:32:23 38° 70° (ENE) 17:36:31
BEESAT 2 04 Mar 17:32:26 17:36:23 45° 125° (SE) 17:40:25 435.950
BRITE-PL 04 Mar 17:38:28 17:39:29 11° 48° (NE) 17:40:41 437.365/2234.400
O/OREOS (USA 219) 04 Mar 17:39:52 17:44:12 38° 50° (NE) 17:48:31 437.305
CUBESAT XI-V 04 Mar 17:41:58 17:44:16 14° 83° (E) 17:46:46 437.345
AIST 2 04 Mar 17:42:29 17:46:04 27° 119° (ESE) 17:49:44 435.215
Cubesat XI-IV 04 Mar 17:42:36 17:47:59 85° 252° (WSW) 17:53:26 437.490
JAS-2 04 Mar 17:42:42 17:46:45 18° 279° (W) 17:50:52 435.910
CUTE-I 04 Mar 17:50:58 17:56:20 76° 256° (WSW) 18:01:46 437.470
HO-68 04 Mar 18:10:08 18:15:40 26° 48° (NE) 18:21:22 435.675
CUTE 1.7 + AOD 2 04 Mar 18:24:38 18:25:28 11° 52° (NE) 18:26:27 437.475
STRAND 1 04 Mar 18:39:17 18:43:37 27° 92° (E) 18:48:00 437.568
BEESAT 3 04 Mar 18:42:24 18:46:27 50° 321° (NW) 18:50:31 437.485
MOZHAYETS 4 04 Mar 18:50:23 18:54:07 24° 300° (WNW) 18:57:46
VERMONT LUNAR 04 Mar 18:53:56 18:54:56 11° 177° (S) 18:55:56 437.305
AAUSAT CUBESAT 2 04 Mar 18:58:43 19:00:45 14° 56° (NE) 19:02:54 437.432
COMPASS 1 04 Mar 19:02:30 19:05:02 16° 58° (ENE) 19:07:41 437.405
AUBIESAT-1 04 Mar 19:03:47 19:06:56 21° 306° (NW) 19:10:12 437.475
M-CUBED/EXP-1 PRIME 04 Mar 19:03:52 19:06:52 20° 307° (NW) 19:09:58 437.505
PRISM 04 Mar 19:05:39 19:09:54 66° 103° (ESE) 19:14:06 437.425
GOMX 1 04 Mar 19:05:57 19:10:23 30° 63° (ENE) 19:14:40 467.674
AIST 1 04 Mar 19:06:07 19:09:58 29° 270° (W) 19:13:43
Oscar 11 04 Mar 19:09:11 19:09:52 10° 51° (NE) 19:10:41 145.826/435.025
BEESAT 2 04 Mar 19:10:45 19:14:40 37° 326° (NW) 19:18:37 435.950
BRITE-PL 04 Mar 19:11:46 19:16:58 45° 67° (ENE) 19:21:56 437.365/2234.400
PHONESAT 2.4 04 Mar 19:13:51 19:14:57 11° 172° (S) 19:16:05 2401.200-2431.200
CUBESAT XI-V 04 Mar 19:17:47 19:22:34 85° 108° (ESE) 19:27:17 437.345
O/OREOS (USA 219) 04 Mar 19:19:23 19:23:39 37° 251° (WSW) 19:27:51 437.305
YUBILEINY 04 Mar 19:19:38 19:25:58 20° 315° (NW) 19:32:04 435.215
AIST 2 04 Mar 19:20:11 19:24:27 58° 320° (NW) 19:28:44 435.215
CINEMA 3 04 Mar 19:22:57 19:25:56 18° 58° (ENE) 19:28:57 145.822/145.860
Cubesat XI-IV 04 Mar 19:25:37 19:29:01 16° 275° (W) 19:32:13 437.490
CUBEBUG 2 04 Mar 19:29:52 19:31:35 12° 54° (NE) 19:33:26 437.445
DOVE 4 04 Mar 19:30:04 19:34:28 33° 65° (ENE) 19:38:42 437.250
SEEDS 04 Mar 19:31:51 19:35:32 32° 65° (ENE) 19:39:18 437.485
CUTE-I 04 Mar 19:34:35 19:37:28 14° 277° (W) 19:40:08 437.470
PCSat 04 Mar 19:36:31 19:39:50 17° 107° (ESE) 19:43:22 145.827
DX 1 04 Mar 19:36:47 19:38:04 11° 51° (NE) 19:39:30 434.975-435.025
CANX-2 04 Mar 19:38:23 19:42:23 44° 69° (ENE) 19:46:26 2200.000
GONETS M04 04 Mar 19:41:36 19:44:31 12° 67° (ENE) 19:47:59
DELFI C3 04 Mar 19:52:09 19:54:48 17° 59° (ENE) 19:57:33 145.870
HO-68 04 Mar 19:55:26 20:02:35 83° 69° (ENE) 20:09:49 435.675
CUTE 1.7 + AOD 2 04 Mar 19:56:28 20:00:37 60° 72° (ENE) 20:04:48 437.475
FUNcube-1 04 Mar 19:56:46 19:59:04 15° 56° (ENE) 20:01:27 145.935
ZACube-1 04 Mar 19:58:43 20:01:09 15° 57° (ENE) 20:03:41 437.345
UKube-1 04 Mar 20:01:43 20:04:26 17° 56° (NE) 20:07:15 .
STRAND 1 04 Mar 20:18:07 20:23:11 56° 293° (WNW) 20:28:12 437.568
UWE-3 04 Mar 20:21:42 20:25:19 27° 63° (ENE) 20:28:56 435.000/436.395/437.385
BEESAT 3 04 Mar 20:22:21 20:25:25 19° 344° (NNW) 20:28:28 437.485
AAUSAT CUBESAT 2 04 Mar 20:31:39 20:35:48 84° 72° (ENE) 20:40:00 437.432
COMPASS 1 04 Mar 20:36:06 20:40:16 79° 255° (WSW) 20:44:28 437.405
Oscar 11 04 Mar 20:41:00 20:45:13 57° 71° (ENE) 20:49:28 145.826/435.025
PRISM 04 Mar 20:41:56 20:45:01 19° 302° (WNW) 20:48:00 437.425
GOMX 1 04 Mar 20:43:11 20:48:22 53° 261° (W) 20:53:14 467.674
BRITE-PL 04 Mar 20:50:28 20:55:36 36° 265° (W) 21:00:26 437.365/2234.400
BEESAT 2 04 Mar 20:51:01 20:53:54 18° 349° (N) 20:56:46 435.950
PHONESAT 2.4 04 Mar 20:51:31 20:52:26 11° 189° (S) 20:53:20 2401.200-2431.200
50 SAT 04 Mar 20:51:33 20:54:11 18° 60° (ENE) 20:56:55 437.505
CUBESAT XI-V 04 Mar 20:56:14 20:59:27 18° 304° (NW) 21:02:34 437.345
CINEMA 3 04 Mar 20:58:01 21:02:43 82° 257° (WSW) 21:07:13 145.822/145.860
AIST 2 04 Mar 21:00:30 21:03:51 21° 342° (NNW) 21:07:12 435.215
CUBEBUG 2 04 Mar 21:03:14 21:07:38 70° 73° (ENE) 21:11:56 437.445
DOVE 4 04 Mar 21:07:22 21:12:10 43° 262° (W) 21:16:44 437.250
SEEDS 04 Mar 21:07:31 21:11:22 34° 264° (W) 21:15:13 437.485
DX 1 04 Mar 21:09:12 21:13:31 59° 70° (ENE) 21:17:53 434.975-435.025
CANX-2 04 Mar 21:15:03 21:18:33 24° 268° (W) 21:22:01 2200.000
PCSat 04 Mar 21:17:07 21:22:33 81° 128° (SE) 21:28:02 145.827
HUMSAT D 04 Mar 21:17:43 21:21:36 39° 68° (ENE) 21:25:30 437.325/437.525
CUBEBUG 1 04 Mar 21:20:03 21:23:12 20° 58° (ENE) 21:26:26 437.445
AISAT 04 Mar 21:23:29 21:27:40 39° 65° (ENE) 21:31:52 437.250
DELFI C3 04 Mar 21:25:34 21:29:36 68° 258° (WSW) 21:33:39 145.870
FUNcube-1 04 Mar 21:30:33 21:34:53 88° 77° (ENE) 21:39:08 145.935
GONETS M04 04 Mar 21:31:08 21:39:22 52° 90° (E) 21:47:42
VELOX 1 04 Mar 21:31:45 21:36:01 44° 67° (ENE) 21:40:18 145.980
ZACube-1 04 Mar 21:32:41 21:37:01 88° 255° (WSW) 21:41:17 437.345
CUTE 1.7 + AOD 2 04 Mar 21:33:58 21:36:59 18° 271° (W) 21:39:55 437.475
UKube-1 04 Mar 21:35:42 21:40:04 85° 254° (WSW) 21:44:28 .
SPROUT 04 Mar 21:45:16 21:46:20 11° 52° (NE) 21:47:34 437.525
HO-68 04 Mar 21:45:24 21:51:14 26° 272° (W) 21:56:57 435.675
ESTCUBE 1 04 Mar 21:56:19 22:00:32 40° 66° (ENE) 22:04:49 437.505/2401.250
UWE-3 04 Mar 21:57:31 22:01:44 44° 262° (W) 22:05:51 435.000/436.395/437.385
STRAND 1 04 Mar 21:59:04 22:01:26 13° 312° (NW) 22:03:38 437.568
UNISAT 6 04 Mar 22:00:01 22:02:31 15° 87° (E) 22:05:10 437.425
BEESAT 3 04 Mar 22:02:11 22:04:54 17° 7° (N) 22:07:37 437.485
DUCHIFAT 1 04 Mar 22:10:03 22:10:51 11° 83° (E) 22:11:53 145.980
AAUSAT CUBESAT 2 04 Mar 22:10:04 22:12:08 13° 275° (W) 22:14:01 437.432
COMPASS 1 04 Mar 22:15:50 22:16:49 11° 277° (W) 22:17:34 437.405
Oscar 11 04 Mar 22:18:32 22:21:47 20° 270° (W) 22:24:58 145.826/435.025
TIGRISAT 04 Mar 22:23:17 22:26:44 24° 92° (E) 22:30:16 435.000
50 SAT 04 Mar 22:24:52 22:28:50 64° 258° (WSW) 22:32:46 437.505
BEESAT 2 04 Mar 22:30:33 22:33:29 18° 13° (NNE) 22:36:26 435.950
POPSAT HIP 1 04 Mar 22:30:49 22:33:36 17° 88° (E) 22:36:28 437.405
POLYITAN 1 04 Mar 22:31:30 22:34:20 18° 89° (E) 22:37:17 437.675
ANTELSAT 04 Mar 22:37:58 22:41:52 33° 95° (E) 22:45:48 437.575/2403.000
CINEMA 3 04 Mar 22:38:36 22:40:41 12° 276° (W) 22:42:33 145.822/145.860
AIST 2 04 Mar 22:40:58 22:43:51 17° 5° (N) 22:46:45 435.215
CUBEBUG 2 04 Mar 22:41:54 22:44:51 17° 272° (W) 22:47:38 437.445
DX 1 04 Mar 22:46:50 22:50:11 20° 270° (W) 22:53:26 434.975-435.025
NANOSAT C BR1 04 Mar 22:52:31 22:56:06 27° 93° (E) 22:59:43 145.865
HUMSAT D 04 Mar 22:53:56 22:57:32 27° 267° (W) 23:01:04 437.325/437.525
RS-15 04 Mar 22:54:00 23:03:52 44° 113° (ESE) 23:14:04 29.354- 29.394
CUBEBUG 1 04 Mar 22:54:41 22:59:08 72° 257° (WSW) 23:03:37 437.445
AISAT 04 Mar 23:00:18 23:04:21 32° 265° (W) 23:08:24 437.250
ITUPSAT 1 04 Mar 23:00:35 23:02:30 13° 50° (NE) 23:04:36 437.325
PCSat 04 Mar 23:01:41 23:06:33 32° 329° (NNW) 23:11:24 145.827
VELOX 1 04 Mar 23:08:53 23:12:47 28° 267° (W) 23:16:38 145.980
FUNcube-1 04 Mar 23:09:50 23:11:55 13° 275° (W) 23:13:49 145.935
ZACube-1 04 Mar 23:12:15 23:14:08 12° 275° (W) 23:15:49 437.345
TISAT 1 04 Mar 23:12:40 23:16:48 50° 69° (ENE) 23:20:58 437.305
UKube-1 04 Mar 23:15:05 23:17:01 12° 275° (W) 23:18:45 .
SPROUT 04 Mar 23:17:21 23:21:38 59° 71° (ENE) 23:25:55 437.525
BUGSAT 1 04 Mar 23:23:25 23:27:21 39° 97° (E) 23:31:14 437.445
QB50P1 04 Mar 23:25:41 23:29:52 54° 100° (E) 23:34:01 145.935-145.965
GONETS M04 04 Mar 23:28:03 23:36:24 48° 294° (WNW) 23:44:47
YUBILEINY 04 Mar 23:29:55 23:30:22 10° 23° (NNE) 23:31:09 435.215
QB50P2 04 Mar 23:30:24 23:34:38 61° 102° (ESE) 23:38:49 145.880/145.840
ESTCUBE 1 04 Mar 23:33:27 23:37:31 31° 265° (W) 23:41:36 437.505/2401.250
DANDE 04 Mar 23:35:34 23:40:50 34° 97° (E) 23:44:58 436.750
UNISAT 6 04 Mar 23:35:36 23:39:55 75° 287° (WNW) 23:44:14 437.425
BEESAT 3 04 Mar 23:40:22 23:44:08 31° 30° (NNE) 23:47:53 437.485
DUCHIFAT 1 04 Mar 23:43:18 23:47:33 78° 104° (ESE) 23:51:46 145.980
CUSAT 1 04 Mar 23:50:51 23:56:09 51° 99° (E) 00:00:08 437.405
SWISSCUBE 04 Mar 23:58:15 00:02:30 33° 63° (ENE) 00:06:50 437.505
TIGRISAT 04 Mar 23:59:38 00:03:45 47° 291° (WNW) 00:07:54 435.000
POPSAT HIP 1 05 Mar 00:05:46 00:09:59 65° 289° (WNW) 00:14:09 437.405
BEESAT 05 Mar 00:06:19 00:10:39 36° 64° (ENE) 00:15:03 436.000
POLYITAN 1 05 Mar 00:06:32 00:10:45 63° 288° (WNW) 00:14:54 437.675
BEESAT 2 05 Mar 00:08:40 00:12:40 41° 35° (NE) 00:16:38 435.950
ANTELSAT 05 Mar 00:14:48 00:18:43 34° 295° (WNW) 00:22:38 437.575/2403.000
AIST 2 05 Mar 00:19:51 00:23:41 30° 29° (NNE) 00:27:30 435.215
Oscar 19 05 Mar 00:25:28 00:26:45 11° 81° (E) 00:28:19 437.125/150
NANOSAT C BR1 05 Mar 00:28:08 00:32:08 41° 293° (WNW) 00:36:05 145.865
ITUPSAT 1 05 Mar 00:34:50 00:39:33 59° 69° (ENE) 00:44:19 437.325
CUBEBUG 1 05 Mar 00:35:25 00:36:27 11° 278° (W) 00:37:14 437.445
PCSat 05 Mar 00:47:49 00:51:37 19° 355° (N) 00:55:24 145.827
TISAT 1 05 Mar 00:49:27 00:52:55 23° 269° (W) 00:56:17 437.305
SPROUT 05 Mar 00:54:54 00:58:09 20° 271° (W) 01:01:17 437.525
BUGSAT 1 05 Mar 00:59:07 01:02:45 28° 297° (WNW) 01:06:16 437.445
QB50P1 05 Mar 01:02:09 01:05:29 22° 300° (WNW) 01:08:44 145.935-145.965
RS-15 05 Mar 01:04:41 01:15:39 77° 320° (NW) 01:26:56 29.354- 29.394
QB50P2 05 Mar 01:07:01 01:10:12 20° 300° (WNW) 01:13:18 145.880/145.840
UNISAT 6 05 Mar 01:14:01 01:16:04 13° 306° (NW) 01:17:59 437.425
KKS-1 05 Mar 01:14:16 01:18:16 33° 64° (ENE) 01:22:19 437.445
STARS 05 Mar 01:15:16 01:18:51 25° 61° (ENE) 01:22:29 437.465
BEESAT 3 05 Mar 01:18:23 01:22:30 60° 232° (SW) 01:26:32 437.485
DANDE 05 Mar 01:18:43 01:24:11 40° 289° (WNW) 01:28:18 436.750
DUCHIFAT 1 05 Mar 01:20:09 01:22:56 17° 303° (WNW) 01:25:34 145.980
YUBILEINY 05 Mar 01:23:58 01:31:20 29° 54° (NE) 01:38:52 435.215
SO-50 05 Mar 01:28:20 01:32:33 36° 122° (ESE) 01:36:59 436.795
GONETS M04 05 Mar 01:31:07 01:36:08 16° 322° (NW) 01:40:51
CUSAT 1 05 Mar 01:34:58 01:39:06 23° 293° (WNW) 01:42:21 437.405
SWISSCUBE 05 Mar 01:35:46 01:40:19 42° 262° (W) 01:44:54 437.505
POPSAT HIP 1 05 Mar 01:43:39 01:45:08 11° 307° (NW) 01:46:28 437.405
BEESAT 05 Mar 01:44:02 01:48:31 38° 264° (W) 01:53:00 436.000
POLYITAN 1 05 Mar 01:44:35 01:45:55 11° 308° (NW) 01:47:06 437.675
BEESAT 2 05 Mar 01:46:56 01:50:52 40° 236° (SW) 01:54:44 435.950
Gurwin Techsat 1B 05 Mar 01:54:04 01:57:44 19° 87° (E) 02:01:33 435.225
AIST 2 05 Mar 01:58:22 02:02:39 69° 231° (SW) 02:06:52 435.215
Oscar 19 05 Mar 02:02:09 02:07:16 65° 102° (ESE) 02:12:23 437.125/150
ITAMSAT 1 05 Mar 02:06:28 02:10:56 29° 92° (E) 02:15:28 435.822/435.867
ITUPSAT 1 05 Mar 02:13:59 02:17:51 23° 269° (W) 02:21:39 437.325
PCSat 05 Mar 02:32:36 02:36:55 23° 20° (NNE) 02:41:15 145.827
MOZHAYETS 4 05 Mar 02:45:07 02:48:16 19° 58° (ENE) 02:51:34
AUBIESAT-1 05 Mar 02:48:57 02:51:56 29° 58° (ENE) 02:55:09 437.475
M-CUBED/EXP-1 PRIME 05 Mar 02:49:09 02:52:13 32° 59° (ENE) 02:55:30 437.505
KKS-1 05 Mar 02:50:43 02:54:54 37° 263° (W) 02:59:04 437.445
STARS 05 Mar 02:50:45 02:55:05 52° 260° (W) 02:59:26 437.465
JAS-2 05 Mar 02:57:52 03:01:26 14° 77° (ENE) 03:05:33 435.910
HORYU 2 05 Mar 03:03:46 03:06:59 20° 90° (E) 03:10:17 437.375
SO-50 05 Mar 03:08:24 03:13:01 52° 323° (NW) 03:17:48 436.795
AO-7 05 Mar 03:12:15 03:18:07 21° 85° (E) 03:24:15 29.400- 29.500
RS-15 05 Mar 03:19:18 03:29:50 47° 351° (N) 03:40:46 29.354- 29.394
YUBILEINY 05 Mar 03:20:38 03:29:33 89° 260° (W) 03:38:25 435.215
Gurwin Techsat 1B 05 Mar 03:33:05 03:38:26 81° 289° (WNW) 03:43:47 435.225
AIST 2 05 Mar 03:38:54 03:40:33 12° 249° (WSW) 03:41:59 435.215
Oscar 19 05 Mar 03:42:06 03:46:17 25° 302° (WNW) 03:50:24 437.125/150
ITAMSAT 1 05 Mar 03:45:39 03:50:46 54° 293° (WNW) 03:55:50 435.822/435.867
PCSat 05 Mar 04:16:02 04:21:26 59° 44° (NE) 04:26:48 145.827
MOZHAYETS 4 05 Mar 04:20:28 04:25:03 76° 257° (WSW) 04:29:41
AUBIESAT-1 05 Mar 04:23:52 04:26:52 28° 259° (W) 04:30:01 437.475
M-CUBED/EXP-1 PRIME 05 Mar 04:24:24 04:27:17 25° 260° (W) 04:30:17 437.505
STRAND 1 05 Mar 04:24:44 04:27:39 16° 51° (NE) 04:30:42 437.568
PRISM 05 Mar 04:28:14 04:30:56 17° 57° (ENE) 04:33:47 437.425
HORYU 2 05 Mar 04:39:40 04:44:06 62° 290° (WNW) 04:48:30 437.375
JAS-2 05 Mar 04:40:53 04:48:08 57° 99° (E) 04:55:52 435.910
SO-50 05 Mar 04:50:40 04:54:34 24° 346° (NNW) 04:58:31 436.795
CUBESAT XI-V 05 Mar 04:50:43 04:54:38 27° 62° (ENE) 04:58:38 437.345
AO-7 05 Mar 05:04:06 05:12:27 78° 108° (ESE) 05:20:46 29.400- 29.500
Gurwin Techsat 1B 05 Mar 05:14:08 05:17:45 18° 307° (NW) 05:21:13 435.225
YUBILEINY 05 Mar 05:18:27 05:25:21 26° 283° (WNW) 05:32:00 435.215
ITAMSAT 1 05 Mar 05:26:57 05:29:17 13° 313° (NW) 05:31:26 435.822/435.867
RS-15 05 Mar 05:33:54 05:44:48 54° 23° (NNE) 05:56:13 29.354- 29.394
GONETS M04 05 Mar 05:37:33 05:40:46 12° 31° (NNE) 05:44:20
Cubesat XI-IV 05 Mar 05:54:12 05:58:32 25° 90° (E) 06:02:57 437.490
PCSat 05 Mar 05:59:48 06:04:40 33° 245° (WSW) 06:09:27 145.827
STRAND 1 05 Mar 06:00:56 06:06:04 70° 70° (ENE) 06:11:14 437.568
MOZHAYETS 4 05 Mar 06:01:30 06:03:12 12° 278° (W) 06:04:42
PRISM 05 Mar 06:01:49 06:06:00 75° 256° (WSW) 06:10:13 437.425
CUTE-I 05 Mar 06:02:13 06:06:48 28° 92° (E) 06:11:25 437.470
AIST 1 05 Mar 06:05:34 06:08:19 17° 84° (E) 06:11:13
HORYU 2 05 Mar 06:18:15 06:19:59 12° 309° (NW) 06:21:32 437.375
JAS-2 05 Mar 06:26:15 06:33:04 44° 298° (WNW) 06:40:17 435.910
CUBESAT XI-V 05 Mar 06:27:16 06:31:52 52° 261° (W) 06:36:31 437.345
SO-50 05 Mar 06:32:45 06:36:35 22° 10° (N) 06:40:29 436.795
AO-7 05 Mar 06:57:23 07:04:44 36° 311° (NW) 07:11:58 29.400- 29.500
HO-68 05 Mar 07:19:54 07:21:14 11° 76° (ENE) 07:23:03 435.675
GONETS M04 05 Mar 07:33:10 07:41:06 37° 60° (ENE) 07:49:10
Cubesat XI-IV 05 Mar 07:33:48 07:39:08 64° 291° (WNW) 07:44:26 437.490
AIST 1 05 Mar 07:41:09 07:45:31 67° 283° (WNW) 07:49:57
STRAND 1 05 Mar 07:41:50 07:45:50 22° 271° (W) 07:49:44 437.568
PRISM 05 Mar 07:41:58 07:42:22 10° 277° (W) 07:42:33 437.425
CUTE-I 05 Mar 07:41:59 07:47:15 57° 293° (WNW) 07:52:29 437.470
RS-15 05 Mar 07:46:51 07:58:11 80° 231° (SW) 08:10:00 29.354- 29.394
O/OREOS (USA 219) 05 Mar 08:01:07 08:02:49 12° 98° (E) 08:04:45 437.305
ANTELSAT 05 Mar 08:09:59 08:11:08 11° 52° (NE) 08:12:27 437.575/2403.000
JAS-2 05 Mar 08:12:49 08:16:36 15° 320° (NW) 08:20:17 435.910
SO-50 05 Mar 08:13:32 08:18:16 44° 34° (NE) 08:23:01 436.795
COMPASS 1 05 Mar 08:15:35 08:17:07 12° 84° (E) 08:18:51 437.405
ISS 05 Mar 08:33:03 08:35:05 16° 145° (SE) 08:37:10 145.825
GOMX 1 05 Mar 08:39:35 08:43:25 28° 92° (E) 08:47:07 467.674
SEEDS 05 Mar 08:45:47 08:49:22 26° 93° (E) 08:53:00 437.485
BUGSAT 1 05 Mar 08:47:15 08:48:33 11° 53° (NE) 08:50:00 437.445
CINEMA 3 05 Mar 08:48:18 08:50:32 14° 86° (E) 08:52:53 145.822/145.860
BRITE-PL 05 Mar 08:49:15 08:53:45 50° 98° (E) 08:57:58 437.365/2234.400
QB50P1 05 Mar 08:50:48 08:53:11 15° 56° (NE) 08:55:41 145.935-145.965
AO-7 05 Mar 08:50:51 08:55:16 15° 337° (NNW) 08:59:31 29.400- 29.500
CANX-2 05 Mar 08:53:27 08:57:26 38° 97° (E) 09:01:27 2200.000
QB50P2 05 Mar 08:55:23 08:58:02 17° 57° (ENE) 09:00:46 145.880/145.840
DOVE 4 05 Mar 09:00:40 09:04:31 31° 94° (E) 09:08:16 437.250
DELFI C3 05 Mar 09:01:17 09:02:47 12° 85° (E) 09:04:29 145.870
HO-68 05 Mar 09:04:02 09:11:01 50° 99° (E) 09:18:00 435.675
UNISAT 6 05 Mar 09:04:40 09:08:24 29° 64° (ENE) 09:12:09 437.425
DUCHIFAT 1 05 Mar 09:07:21 09:10:25 20° 59° (ENE) 09:13:33 145.980
CUTE 1.7 + AOD 2 05 Mar 09:11:31 09:15:41 52° 99° (E) 09:19:53 437.475
Cubesat XI-IV 05 Mar 09:15:16 09:18:21 15° 311° (NW) 09:21:17 437.490
FUNcube-1 05 Mar 09:15:23 09:16:15 11° 83° (E) 09:17:21 145.935
ZACube-1 05 Mar 09:17:19 09:18:39 11° 84° (E) 09:20:10 437.345
UKube-1 05 Mar 09:19:45 09:20:47 11° 84° (E) 09:22:03 .
AIST 1 05 Mar 09:22:43 09:24:12 11° 306° (NW) 09:25:31
CUTE-I 05 Mar 09:23:40 09:26:21 14° 313° (NW) 09:28:52 437.470
TIGRISAT 05 Mar 09:27:50 09:31:58 44° 68° (ENE) 09:36:04 435.000
POPSAT HIP 1 05 Mar 09:29:16 09:32:58 29° 64° (ENE) 09:36:43 437.405
GONETS M04 05 Mar 09:30:01 09:38:43 69° 265° (W) 09:47:23
POLYITAN 1 05 Mar 09:30:13 09:33:57 30° 64° (ENE) 09:37:44 437.675
O/OREOS (USA 219) 05 Mar 09:36:57 09:41:31 77° 117° (ESE) 09:46:09 437.305
UWE-3 05 Mar 09:41:39 09:44:58 23° 91° (E) 09:48:20 435.000/436.395/437.385
ANTELSAT 05 Mar 09:42:54 09:47:11 62° 71° (ENE) 09:51:27 437.575/2403.000
AAUSAT CUBESAT 2 05 Mar 09:44:24 09:48:36 70° 102° (ESE) 09:52:48 437.432
COMPASS 1 05 Mar 09:49:20 09:53:35 87° 104° (ESE) 09:57:48 437.405
NANOSAT C BR1 05 Mar 09:50:49 09:54:53 44° 68° (ENE) 09:58:59 145.865
SO-50 05 Mar 09:54:10 09:58:56 49° 235° (SW) 10:03:41 436.795
Oscar 11 05 Mar 09:58:19 10:02:33 50° 99° (E) 10:06:47 145.826/435.025
50 SAT 05 Mar 09:59:19 10:00:30 11° 85° (E) 10:01:52 437.505
RS-15 05 Mar 10:00:01 10:09:09 28° 255° (WSW) 10:18:12 29.354- 29.394
ISS 05 Mar 10:07:51 10:10:58 48° 163° (SSE) 10:14:06 145.825
DANDE 05 Mar 10:11:12 10:13:29 22° 66° (ENE) 10:15:40 436.750
GOMX 1 05 Mar 10:17:35 10:21:45 38° 294° (WNW) 10:25:40 467.674
BUGSAT 1 05 Mar 10:19:04 10:23:18 63° 71° (ENE) 10:27:33 437.445
SEEDS 05 Mar 10:21:21 10:25:21 41° 292° (WNW) 10:29:21 437.485
CUSAT 1 05 Mar 10:23:16 10:25:51 43° 72° (ENE) 10:28:22 437.405
CINEMA 3 05 Mar 10:24:11 10:28:24 75° 287° (WNW) 10:32:32 145.822/145.860
QB50P1 05 Mar 10:24:13 10:28:31 89° 75° (ENE) 10:32:49 145.935-145.965
CUBEBUG 2 05 Mar 10:24:56 10:29:06 68° 102° (ESE) 10:33:16 437.445
DX 1 05 Mar 10:27:45 10:31:59 46° 99° (E) 10:36:12 434.975-435.025
BRITE-PL 05 Mar 10:28:14 10:32:02 25° 300° (WNW) 10:35:36 437.365/2234.400
QB50P2 05 Mar 10:29:09 10:33:27 82° 256° (WSW) 10:37:45 145.880/145.840
CANX-2 05 Mar 10:29:35 10:33:19 29° 296° (WNW) 10:37:00 2200.000
HUMSAT D 05 Mar 10:31:33 10:35:15 32° 95° (E) 10:38:59 437.325/437.525
DELFI C3 05 Mar 10:34:34 10:38:42 90° 290° (WNW) 10:42:48 145.870
DOVE 4 05 Mar 10:38:27 10:42:23 34° 295° (WNW) 10:46:09 437.250
CUBEBUG 1 05 Mar 10:38:55 10:41:23 15° 86° (E) 10:44:00 437.445
UNISAT 6 05 Mar 10:41:00 10:45:07 40° 262° (W) 10:49:12 437.425
DUCHIFAT 1 05 Mar 10:41:38 10:45:54 65° 258° (WSW) 10:50:09 145.980
AO-7 05 Mar 10:42:09 10:44:36 12° 5° (N) 10:47:06 29.400- 29.500
AISAT 05 Mar 10:44:47 10:48:48 32° 95° (E) 10:52:49 437.250
CUTE 1.7 + AOD 2 05 Mar 10:48:00 10:51:23 23° 298° (WNW) 10:54:42 437.475
FUNcube-1 05 Mar 10:49:15 10:53:26 81° 104° (ESE) 10:57:36 145.935
ZACube-1 05 Mar 10:51:37 10:55:49 86° 108° (ESE) 11:00:00 437.345
HO-68 05 Mar 10:51:58 10:58:47 46° 301° (WNW) 11:05:32 435.675
VELOX 1 05 Mar 10:52:47 10:56:57 37° 97° (E) 11:01:05 145.980
UKube-1 05 Mar 10:53:26 10:57:50 76° 104° (ESE) 11:02:10 .
POPSAT HIP 1 05 Mar 11:04:44 11:08:47 39° 263° (W) 11:12:49 437.405
TIGRISAT 05 Mar 11:05:16 11:08:56 25° 267° (W) 11:12:31 435.000
POLYITAN 1 05 Mar 11:05:48 11:09:50 38° 263° (W) 11:13:51 437.675
UWE-3 05 Mar 11:17:47 11:21:47 46° 291° (WNW) 11:25:46 435.000/436.395/437.385
O/OREOS (USA 219) 05 Mar 11:17:50 11:21:31 23° 319° (NW) 11:25:10 437.305
ESTCUBE 1 05 Mar 11:19:35 11:23:50 37° 96° (E) 11:28:04 437.505/2401.250
AAUSAT CUBESAT 2 05 Mar 11:20:57 11:23:51 18° 301° (WNW) 11:26:40 437.432
ANTELSAT 05 Mar 11:21:19 11:24:26 19° 271° (W) 11:27:27 437.575/2403.000
COMPASS 1 05 Mar 11:26:16 11:28:46 15° 303° (WNW) 11:31:09 437.405
NANOSAT C BR1 05 Mar 11:27:21 11:30:58 25° 268° (W) 11:34:31 145.865
GONETS M04 05 Mar 11:28:30 11:34:03 18° 288° (WNW) 11:39:15
50 SAT 05 Mar 11:32:13 11:36:12 90° 12° (NNE) 11:40:10 437.505
Oscar 11 05 Mar 11:34:58 11:38:31 25° 298° (WNW) 11:42:01 145.826/435.025
ISS 05 Mar 11:44:00 11:47:12 71° 184° (S) 11:50:26 145.825
Gurwin Techsat 1B 05 Mar 11:44:53 11:46:57 12° 47° (NE) 11:49:12 435.225
Oscar 19 05 Mar 11:46:48 11:51:16 31° 61° (ENE) 11:55:46 437.125/150
ITAMSAT 1 05 Mar 11:53:28 11:56:43 17° 52° (NE) 12:00:06 435.822/435.867
DANDE 05 Mar 11:55:05 11:56:37 14° 270° (W) 11:58:04 436.750
BUGSAT 1 05 Mar 11:56:11 11:59:13 18° 271° (W) 12:02:10 437.445
CUBEBUG 2 05 Mar 12:02:33 12:05:26 18° 301° (WNW) 12:08:13 437.445
QB50P1 05 Mar 12:03:01 12:05:06 13° 275° (W) 12:07:01 145.935-145.965
CINEMA 3 05 Mar 12:03:09 12:04:57 12° 306° (NW) 12:06:36 145.822/145.860
DX 1 05 Mar 12:04:21 12:08:04 27° 298° (WNW) 12:11:42 434.975-435.025
HUMSAT D 05 Mar 12:07:21 12:11:05 33° 294° (WNW) 12:14:46 437.325/437.525
QB50P2 05 Mar 12:08:36 12:10:09 11° 276° (W) 12:11:31 145.880/145.840
DELFI C3 05 Mar 12:11:06 12:13:21 14° 303° (WNW) 12:15:29 145.870
CUBEBUG 1 05 Mar 12:13:58 12:18:26 81° 287° (WNW) 12:22:49 437.445
AISAT 05 Mar 12:21:22 12:25:29 37° 295° (WNW) 12:29:33 437.250
FUNcube-1 05 Mar 12:26:45 12:29:18 16° 303° (WNW) 12:31:44 145.935
TISAT 1 05 Mar 12:27:10 12:31:10 38° 97° (E) 12:35:07 437.305
AO-7 05 Mar 12:28:46 12:34:14 20° 33° (NNE) 12:39:51 29.400- 29.500
ZACube-1 05 Mar 12:29:15 12:31:40 15° 303° (WNW) 12:33:59 437.345
VELOX 1 05 Mar 12:29:29 12:33:30 33° 296° (WNW) 12:37:27 145.980
UKube-1 05 Mar 12:30:31 12:33:31 18° 303° (WNW) 12:36:25 .
SPROUT 05 Mar 12:34:06 12:38:18 50° 99° (E) 12:42:30 437.525
